Location: Newark
(37.9800°N, 91.3000°W)
Time: 17:27:55
(UTC+00:00)

Envisat - Pass Details

Date: 29 October 2019
Orbit: 764 x 766 km, 98.1° (Epoch: 19 November)

Event Time Altitude Azimuth Distance (km) Brightness Sun altitude
Rises 23:34:13 0° 147° (SSE) 3,219 6.0 -5.5°
Reaches altitude 10° 23:36:37 10° 140° (SE) 2,297 5.2 -6.0°
Maximum altitude 23:41:21 41° 71° (ENE) 1,105 3.4 -6.9°
Drops below altitude 10° 23:46:05 10° 3° (N) 2,309 5.4 -7.8°
Sets 23:48:30 0° 356° (N) 3,239 6.2 -8.2°
